Time,TemperatureF,DewpointF,PressureIn,WindDirection,WindDirectionDegrees,WindSpeedMPH,WindSpeedGustMPH,Humidity,HourlyPrecipIn,Conditions,Clouds,dailyrainin,SoftwareType,DateUTC
2013-04-29 00:03:00,57.0,57.0,30.05,NNE,25,0.0,4.0,100,0.04,,,0.22,,2013-04-29 04:03:00,
2013-04-29 00:13:00,57.0,57.0,30.05,NNE,25,0.0,4.0,100,0.04,,,0.22,,2013-04-29 04:13:00,
2013-04-29 00:23:00,57.0,57.0,30.06,NNE,21,1.0,6.0,100,0.05,,,1.93,,2013-04-29 04:23:00,
2013-04-29 00:33:00,57.0,57.0,30.04,ENE,59,1.0,7.0,100,0.05,,,1.93,,2013-04-29 04:33:00,
2013-04-29 00:43:00,57.0,57.0,30.04,ENE,59,1.0,7.0,100,0.05,,,1.93,,2013-04-29 04:43:00,
2013-04-29 00:52:00,57.0,57.0,30.04,NE,46,0.0,5.0,100,0.07,,,1.93,,2013-04-29 04:52:00,
2013-04-29 01:02:00,57.0,57.0,30.04,NNE,31,0.0,5.0,100,0.08,,,1.93,,2013-04-29 05:02:00,
2013-04-29 01:12:00,57.0,57.0,30.04,NNE,31,0.0,5.0,100,0.08,,,1.93,,2013-04-29 05:12:00,
2013-04-29 01:22:00,57.0,57.0,30.03,NE,48,0.0,4.0,100,0.07,,,1.93,,2013-04-29 05:22:00,
2013-04-29 01:32:00,57.0,57.0,30.03,East,79,0.0,0.0,100,0.07,,,1.93,,2013-04-29 05:32:00,
2013-04-29 01:42:00,57.0,57.0,30.03,East,79,0.0,0.0,100,0.07,,,1.93,,2013-04-29 05:42:00,
2013-04-29 01:52:00,57.0,57.0,30.03,East,79,0.0,0.0,100,0.05,,,1.93,,2013-04-29 05:52:00,
2013-04-29 02:02:00,58.0,58.0,30.03,East,79,0.0,0.0,100,0.03,,,1.93,,2013-04-29 06:02:00,
2013-04-29 02:11:00,58.0,58.0,30.03,East,79,0.0,0.0,100,0.03,,,1.93,,2013-04-29 06:11:00,
2013-04-29 02:21:00,58.0,58.0,30.03,East,79,0.0,0.0,100,0.03,,,1.93,,2013-04-29 06:21:00,
2013-04-29 02:32:00,58.0,58.0,30.03,East,79,0.0,0.0,100,0.05,,,1.93,,2013-04-29 06:32:00,
2013-04-29 02:42:00,58.0,58.0,30.03,East,79,0.0,0.0,100,0.05,,,1.93,,2013-04-29 06:42:00,
2013-04-29 02:52:00,58.0,58.0,30.02,East,79,0.0,0.0,100,0.05,,,1.93,,2013-04-29 06:52:00,
2013-04-29 03:01:00,58.0,58.0,30.02,East,79,0.0,0.0,100,0.06,,,1.93,,2013-04-29 07:01:00,
2013-04-29 03:11:00,58.0,58.0,30.02,East,79,0.0,0.0,100,0.06,,,1.93,,2013-04-29 07:11:00,
2013-04-29 03:21:00,58.0,58.0,30.02,East,79,0.0,0.0,100,0.07,,,1.93,,2013-04-29 07:21:00,
2013-04-29 03:32:00,58.0,58.0,30.02,WSW,250,2.0,9.0,100,0.06,,,1.93,,2013-04-29 07:32:00,
2013-04-29 03:42:00,58.0,58.0,30.02,WSW,250,2.0,9.0,100,0.06,,,1.93,,2013-04-29 07:42:00,
2013-04-29 03:52:00,58.0,58.0,30.02,SW,236,0.0,0.0,100,0.05,,,1.93,,2013-04-29 07:52:00,
2013-04-29 04:03:00,58.0,58.0,30.02,SW,236,0.0,0.0,100,0.05,,,1.93,,2013-04-29 08:03:00,
2013-04-29 04:11:00,58.0,58.0,30.02,SW,236,0.0,0.0,100,0.05,,,1.93,,2013-04-29 08:11:00,
2013-04-29 04:21:00,58.0,58.0,30.01,SW,236,0.0,0.0,100,0.03,,,1.93,,2013-04-29 08:21:00,
2013-04-29 04:32:00,58.0,58.0,30.01,SW,236,0.0,0.0,100,0.02,,,1.93,,2013-04-29 08:32:00,
2013-04-29 04:42:00,58.0,58.0,30.01,SW,236,0.0,0.0,100,0.02,,,1.93,,2013-04-29 08:42:00,
2013-04-29 04:52:00,58.0,58.0,30.01,SW,236,0.0,0.0,100,0.02,,,1.93,,2013-04-29 08:52:00,
2013-04-29 05:01:00,58.0,58.0,30.01,SW,236,0.0,0.0,100,0.01,,,1.93,,2013-04-29 09:01:00,
2013-04-29 05:12:00,58.0,58.0,30.01,SW,236,0.0,0.0,100,0.01,,,1.93,,2013-04-29 09:12:00,
2013-04-29 05:21:00,58.0,58.0,30.01,SW,236,0.0,0.0,100,0.02,,,1.93,,2013-04-29 09:21:00,
2013-04-29 05:33:00,58.0,58.0,30.01,SW,236,0.0,0.0,100,0.01,,,1.93,,2013-04-29 09:33:00,
2013-04-29 05:42:00,58.0,58.0,30.01,SW,236,0.0,0.0,100,0.01,,,1.93,,2013-04-29 09:42:00,
2013-04-29 05:53:00,58.0,58.0,30.00,SW,236,0.0,0.0,100,0.02,,,1.93,,2013-04-29 09:53:00,
2013-04-29 06:02:00,58.0,58.0,30.00,SW,236,0.0,0.0,100,0.03,,,1.93,,2013-04-29 10:02:00,
2013-04-29 06:12:00,58.0,58.0,30.00,SW,236,0.0,0.0,100,0.03,,,1.93,,2013-04-29 10:12:00,
2013-04-29 06:23:00,58.0,58.0,30.01,ENE,58,0.0,0.0,100,0.03,,,1.93,,2013-04-29 10:23:00,
2013-04-29 06:32:00,58.0,58.0,30.01,ENE,58,0.0,0.0,100,0.03,,,1.93,,2013-04-29 10:32:00,
2013-04-29 06:42:00,58.0,58.0,30.01,ENE,58,0.0,0.0,100,0.03,,,1.93,,2013-04-29 10:42:00,
2013-04-29 06:52:00,58.0,58.0,30.02,ENE,58,0.0,0.0,100,0.02,,,1.93,,2013-04-29 10:52:00,
2013-04-29 07:03:00,58.0,58.0,30.02,ENE,58,0.0,0.0,100,0.02,,,1.93,,2013-04-29 11:03:00,
2013-04-29 07:12:00,58.0,58.0,30.02,ENE,58,0.0,0.0,100,0.02,,,1.93,,2013-04-29 11:12:00,
2013-04-29 07:21:00,58.0,58.0,30.02,ENE,58,0.0,0.0,100,0.01,,,1.93,,2013-04-29 11:21:00,
2013-04-29 07:32:00,58.0,58.0,30.03,ENE,58,0.0,0.0,100,0.01,,,1.93,,2013-04-29 11:32:00,
2013-04-29 07:42:00,58.0,58.0,30.03,ENE,58,0.0,0.0,100,0.01,,,1.93,,2013-04-29 11:42:00,
2013-04-29 07:52:00,58.0,58.0,30.02,ENE,58,0.0,0.0,100,0.01,,,1.93,,2013-04-29 11:52:00,
2013-04-29 08:01:00,58.0,58.0,30.02,ENE,58,0.0,0.0,100,0.00,,,1.93,,2013-04-29 12:01:00,
2013-04-29 08:12:00,58.0,58.0,30.02,ENE,58,0.0,0.0,100,0.00,,,1.93,,2013-04-29 12:12:00,
2013-04-29 08:22:00,59.0,59.0,30.02,ENE,58,0.0,0.0,100,0.00,,,1.93,,2013-04-29 12:22:00,
2013-04-29 08:32:00,59.0,59.0,30.03,ENE,58,0.0,0.0,100,0.00,,,1.93,,2013-04-29 12:32:00,
2013-04-29 08:42:00,59.0,59.0,30.03,ENE,58,0.0,0.0,100,0.00,,,1.93,,2013-04-29 12:42:00,
2013-04-29 08:52:00,59.0,59.0,30.03,West,264,0.0,2.0,100,0.00,,,1.93,,2013-04-29 12:52:00,
2013-04-29 09:01:00,59.0,59.0,30.03,WNW,287,1.0,2.0,100,0.00,,,1.93,,2013-04-29 13:01:00,
2013-04-29 09:11:00,59.0,59.0,30.03,WNW,287,1.0,2.0,100,0.00,,,1.93,,2013-04-29 13:11:00,
2013-04-29 09:21:00,60.0,60.0,30.03,WNW,287,0.0,0.0,100,0.00,,,1.93,,2013-04-29 13:21:00,
2013-04-29 09:32:00,59.0,59.0,30.03,WNW,287,0.0,0.0,100,0.00,,,1.93,,2013-04-29 13:32:00,
2013-04-29 09:42:00,59.0,59.0,30.03,WNW,287,0.0,0.0,100,0.00,,,1.93,,2013-04-29 13:42:00,
2013-04-29 09:52:00,60.0,60.0,30.02,WNW,287,0.0,0.0,100,0.00,,,1.93,,2013-04-29 13:52:00,
2013-04-29 10:02:00,60.0,60.0,30.03,WNW,287,0.0,0.0,100,0.00,,,1.93,,2013-04-29 14:02:00,
2013-04-29 10:11:00,60.0,60.0,30.03,WNW,287,0.0,0.0,100,0.00,,,1.93,,2013-04-29 14:11:00,
2013-04-29 10:21:00,60.0,60.0,30.02,WNW,287,0.0,0.0,100,0.00,,,1.93,,2013-04-29 14:21:00,
2013-04-29 10:32:00,61.0,61.0,30.03,WNW,287,0.0,0.0,100,0.00,,,1.93,,2013-04-29 14:32:00,
2013-04-29 10:42:00,61.0,61.0,30.03,WNW,287,0.0,0.0,100,0.00,,,1.93,,2013-04-29 14:42:00,
2013-04-29 10:52:00,62.0,62.0,30.03,WNW,287,0.0,0.0,100,0.00,,,1.93,,2013-04-29 14:52:00,
2013-04-29 11:01:00,62.0,62.0,30.03,West,281,2.0,4.0,100,0.00,,,1.93,,2013-04-29 15:01:00,
2013-04-29 11:12:00,62.0,62.0,30.03,West,281,2.0,4.0,100,0.00,,,1.93,,2013-04-29 15:12:00,
2013-04-29 11:21:00,62.0,62.0,30.03,WSW,256,1.0,4.0,100,0.00,,,1.93,,2013-04-29 15:21:00,
2013-04-29 11:33:00,63.0,63.0,30.04,SSW,204,0.0,0.0,100,0.00,,,1.93,,2013-04-29 15:33:00,
2013-04-29 11:42:00,63.0,63.0,30.04,SSW,204,0.0,0.0,100,0.00,,,1.93,,2013-04-29 15:42:00,
2013-04-29 11:53:00,64.0,64.0,30.04,WSW,250,3.0,4.0,100,0.00,,,1.93,,2013-04-29 15:53:00,
2013-04-29 12:03:00,63.0,63.0,30.04,NW,308,0.0,1.0,100,0.00,,,1.93,,2013-04-29 16:03:00,
2013-04-29 12:12:00,63.0,63.0,30.04,NW,308,0.0,1.0,100,0.00,,,1.93,,2013-04-29 16:12:00,
2013-04-29 12:23:00,64.0,64.0,30.04,NNW,338,3.0,5.0,100,0.00,,,1.93,,2013-04-29 16:23:00,
2013-04-29 12:33:00,65.0,65.0,30.04,WNW,287,1.0,5.0,100,0.00,,,1.93,,2013-04-29 16:33:00,
2013-04-29 12:42:00,65.0,65.0,30.04,WNW,287,1.0,5.0,100,0.00,,,1.93,,2013-04-29 16:42:00,
2013-04-29 12:52:00,66.0,66.0,30.03,WNW,300,2.0,6.0,99,0.00,,,1.93,,2013-04-29 16:52:00,
2013-04-29 13:02:00,66.0,65.0,30.03,West,270,0.0,6.0,96,0.00,,,1.93,,2013-04-29 17:02:00,
2013-04-29 13:12:00,66.0,65.0,30.03,West,270,0.0,6.0,96,0.00,,,1.93,,2013-04-29 17:12:00,
2013-04-29 13:22:00,66.0,65.0,30.02,SW,226,3.0,5.0,97,0.00,,,1.93,,2013-04-29 17:22:00,
2013-04-29 13:32:00,67.0,66.0,30.02,SW,236,2.0,4.0,95,0.00,,,1.93,,2013-04-29 17:32:00,
2013-04-29 13:42:00,67.0,66.0,30.02,SW,236,2.0,4.0,95,0.00,,,1.93,,2013-04-29 17:42:00,
2013-04-29 13:52:00,68.0,67.0,30.01,WSW,249,1.0,5.0,98,0.00,,,1.93,,2013-04-29 17:52:00,
2013-04-29 14:01:00,68.0,67.0,30.01,SSW,194,0.0,4.0,95,0.00,,,1.93,,2013-04-29 18:01:00,
2013-04-29 14:13:00,68.0,67.0,30.01,SSW,194,0.0,4.0,95,0.00,,,1.93,,2013-04-29 18:13:00,
2013-04-29 14:22:00,68.0,66.0,30.00,NNE,25,3.0,5.0,94,0.00,,,1.93,,2013-04-29 18:22:00,
2013-04-29 14:32:00,69.0,67.0,29.99,WSW,243,2.0,6.0,92,0.00,,,1.93,,2013-04-29 18:32:00,
2013-04-29 14:42:00,69.0,67.0,29.99,WSW,243,2.0,6.0,92,0.00,,,1.93,,2013-04-29 18:42:00,
2013-04-29 14:52:00,72.0,66.0,29.98,North,6,4.0,8.0,81,0.00,,,1.93,,2013-04-29 18:52:00,
2013-04-29 15:01:00,70.0,64.0,29.98,SSE,150,3.0,7.0,81,0.00,,,1.93,,2013-04-29 19:01:00,
2013-04-29 15:11:00,70.0,64.0,29.98,SSE,150,3.0,7.0,81,0.00,,,1.93,,2013-04-29 19:11:00,
2013-04-29 15:21:00,71.0,67.0,29.97,SSW,212,0.0,4.0,86,0.00,,,1.93,,2013-04-29 19:21:00,
2013-04-29 15:32:00,70.0,65.0,29.97,NNE,24,2.0,4.0,84,0.00,,,1.93,,2013-04-29 19:32:00,
2013-04-29 15:42:00,70.0,65.0,29.97,NNE,24,2.0,4.0,84,0.00,,,1.93,,2013-04-29 19:42:00,
2013-04-29 15:52:00,70.0,64.0,29.96,NNE,32,0.0,7.0,81,0.00,,,1.93,,2013-04-29 19:52:00,
2013-04-29 16:02:00,70.0,65.0,29.95,West,266,2.0,5.0,84,0.00,,,1.93,,2013-04-29 20:02:00,
2013-04-29 16:12:00,70.0,65.0,29.95,West,266,2.0,5.0,84,0.00,,,1.93,,2013-04-29 20:12:00,
2013-04-29 16:21:00,72.0,64.0,29.95,SE,136,4.0,5.0,76,0.00,,,1.93,,2013-04-29 20:21:00,
2013-04-29 16:32:00,71.0,62.0,29.94,SSW,212,0.0,8.0,73,0.00,,,1.93,,2013-04-29 20:32:00,
2013-04-29 16:42:00,71.0,62.0,29.94,SSW,212,0.0,8.0,73,0.00,,,1.93,,2013-04-29 20:42:00,
2013-04-29 16:52:00,72.0,63.0,29.93,SW,232,3.0,5.0,73,0.00,,,1.93,,2013-04-29 20:52:00,
2013-04-29 17:01:00,72.0,65.0,29.93,SSE,162,1.0,5.0,79,0.00,,,1.93,,2013-04-29 21:01:00,
2013-04-29 17:11:00,72.0,65.0,29.93,SSE,162,1.0,5.0,79,0.00,,,1.93,,2013-04-29 21:11:00,
2013-04-29 17:21:00,71.0,64.0,29.93,WSW,252,1.0,3.0,79,0.00,,,1.93,,2013-04-29 21:21:00,
2013-04-29 17:33:00,73.0,65.0,29.93,SSE,167,0.0,3.0,75,0.00,,,1.93,,2013-04-29 21:33:00,
2013-04-29 17:42:00,73.0,65.0,29.93,SSE,167,0.0,3.0,75,0.00,,,1.93,,2013-04-29 21:42:00,
2013-04-29 17:53:00,72.0,63.0,29.93,West,267,4.0,7.0,74,0.00,,,1.93,,2013-04-29 21:53:00,
2013-04-29 18:02:00,71.0,64.0,29.93,SW,236,0.0,0.0,79,0.00,,,1.93,,2013-04-29 22:02:00,
2013-04-29 18:13:00,71.0,64.0,29.93,SW,236,0.0,0.0,79,0.00,,,1.93,,2013-04-29 22:13:00,
2013-04-29 18:23:00,70.0,65.0,29.92,SW,236,0.0,0.0,83,0.00,,,1.93,,2013-04-29 22:23:00,
2013-04-29 18:32:00,71.0,65.0,29.92,NNE,23,1.0,4.0,81,0.00,,,1.93,,2013-04-29 22:32:00,
2013-04-29 18:42:00,71.0,65.0,29.92,NNE,23,1.0,4.0,81,0.00,,,1.93,,2013-04-29 22:42:00,
2013-04-29 18:53:00,71.0,66.0,29.92,NE,44,1.0,3.0,84,0.00,,,1.93,,2013-04-29 22:53:00,
2013-04-29 19:02:00,70.0,64.0,29.93,NE,42,0.0,0.0,82,0.00,,,1.93,,2013-04-29 23:02:00,
2013-04-29 19:12:00,70.0,64.0,29.93,NE,42,0.0,0.0,82,0.00,,,1.93,,2013-04-29 23:12:00,
2013-04-29 19:22:00,70.0,64.0,29.93,NE,49,0.0,3.0,82,0.00,,,1.93,,2013-04-29 23:22:00,
2013-04-29 19:32:00,70.0,66.0,29.93,NE,49,0.0,0.0,87,0.00,,,1.93,,2013-04-29 23:32:00,
2013-04-29 19:42:00,70.0,66.0,29.93,NE,49,0.0,0.0,87,0.00,,,1.93,,2013-04-29 23:42:00,
2013-04-29 19:52:00,68.0,67.0,29.93,ENE,77,0.0,2.0,96,0.00,,,1.93,,2013-04-29 23:52:00,
2013-04-29 20:01:00,67.0,67.0,29.94,ENE,77,0.0,0.0,99,0.00,,,1.93,,2013-04-30 00:01:00,
2013-04-29 20:11:00,67.0,67.0,29.94,ENE,77,0.0,0.0,99,0.00,,,1.93,,2013-04-30 00:11:00,
2013-04-29 20:21:00,66.0,66.0,29.95,ENE,77,0.0,0.0,100,0.00,,,1.93,,2013-04-30 00:21:00,
2013-04-29 20:32:00,66.0,66.0,29.95,ENE,77,0.0,0.0,100,0.00,,,1.93,,2013-04-30 00:32:00,
2013-04-29 20:42:00,66.0,66.0,29.95,ENE,77,0.0,0.0,100,0.00,,,1.93,,2013-04-30 00:42:00,
2013-04-29 20:52:00,65.0,65.0,29.96,ENE,77,0.0,0.0,100,0.00,,,1.93,,2013-04-30 00:52:00,
2013-04-29 21:02:00,65.0,65.0,29.96,ENE,77,0.0,0.0,100,0.00,,,1.93,,2013-04-30 01:02:00,
2013-04-29 21:11:00,65.0,65.0,29.96,ENE,77,0.0,0.0,100,0.00,,,1.93,,2013-04-30 01:11:00,
2013-04-29 21:22:00,64.0,64.0,29.96,ENE,77,0.0,0.0,100,0.00,,,1.93,,2013-04-30 01:22:00,
2013-04-29 21:32:00,63.0,63.0,29.96,ENE,77,0.0,0.0,100,0.00,,,1.93,,2013-04-30 01:32:00,
2013-04-29 21:41:00,63.0,63.0,29.96,ENE,77,0.0,0.0,100,0.00,,,1.93,,2013-04-30 01:41:00,
2013-04-29 21:52:00,63.0,63.0,29.97,ENE,77,0.0,0.0,100,0.00,,,1.93,,2013-04-30 01:52:00,
2013-04-29 22:01:00,64.0,64.0,29.98,ENE,77,0.0,0.0,100,0.00,,,1.93,,2013-04-30 02:01:00,
2013-04-29 22:11:00,64.0,64.0,29.98,NE,42,0.0,3.0,100,0.00,,,1.93,,2013-04-30 02:11:00,
2013-04-29 22:21:00,64.0,64.0,29.98,NE,42,0.0,3.0,100,0.00,,,1.93,,2013-04-30 02:21:00,
2013-04-29 22:31:00,64.0,64.0,29.98,ENE,58,0.0,4.0,100,0.00,,,1.93,,2013-04-30 02:31:00,
2013-04-29 22:41:00,64.0,64.0,29.98,ENE,58,0.0,4.0,100,0.00,,,1.93,,2013-04-30 02:41:00,
2013-04-29 22:51:00,63.0,63.0,29.98,NE,38,0.0,2.0,100,0.00,,,1.93,,2013-04-30 02:51:00,
2013-04-29 23:01:00,63.0,63.0,29.98,NE,38,0.0,0.0,100,0.00,,,1.93,,2013-04-30 03:01:00,
2013-04-29 23:11:00,62.0,62.0,29.98,NE,38,0.0,0.0,100,0.00,,,1.93,,2013-04-30 03:11:00,
2013-04-29 23:21:00,62.0,62.0,29.98,NE,38,0.0,0.0,100,0.00,,,1.93,,2013-04-30 03:21:00,
2013-04-29 23:33:00,62.0,62.0,29.98,NE,38,0.0,0.0,100,0.00,,,1.93,,2013-04-30 03:33:00,
2013-04-29 23:42:00,62.0,62.0,29.98,NE,38,0.0,0.0,100,0.00,,,1.93,,2013-04-30 03:42:00,
2013-04-29 23:52:00,62.0,62.0,29.98,NE,38,0.0,0.0,100,0.00,,,1.93,,2013-04-30 03:52:00,